Location: Austin
(30.3000°N, 97.7500°W)
Time: 08:09:04
(UTC-06:00)

ATLAS 2AS CENTAUR R/B - Pass Details

Date: 12 February 2024
Orbit: 1007 x 1204 km, 63.7° (Epoch: 27 February)

Event Time Altitude Azimuth Distance (km) Brightness Sun altitude
Rises 19:01:42 0° 227° (SW) 4,094 6.8 -10.3°
Reaches altitude 10° 19:04:37 10° 233° (SW) 3,124 6.2 -10.9°
Maximum altitude 19:11:43 44° 304° (NW) 1,577 4.0 -12.4°
Drops below altitude 10° 19:18:38 10° 15° (NNE) 3,039 4.9 -13.9°
Sets 19:21:28 0° 22° (NNE) 3,973 5.4 -14.5°
